Location: Luz Observatory
(34.5000°N, 117.2833°W)
Time: 12:53:38
(UTC-07:00)

Cosmos 1484 Rocket - Visible Passes

Search period start: 30 September 2014 00:00
Search period end: 10 October 2014 00:00
Orbit: 516 x 572 km, 97.4° (Epoch: 29 September)

Date Brightness Start Highest point End Pass type
(mag) Time Alt. Az. Time Alt. Az. Time Alt. Az.
30 Sep 4.7 19:10:16 11° E 19:11:53 13° ENE 19:13:42 10° NE visible
30 Sep 4.1 20:45:52 37° WSW 20:46:07 37° W 20:49:49 10° NNW visible
01 Oct 4.8 19:04:53 10° E 19:05:56 11° ENE 19:07:00 10° NE visible
01 Oct 3.8 20:39:59 44° WSW 20:40:05 45° W 20:43:54 10° NNW visible
02 Oct 3.4 20:34:05 54° W 20:34:05 54° W 20:37:58 10° NNW visible
03 Oct 3.1 20:28:10 65° W 20:28:10 65° W 20:32:01 10° NNW visible
04 Oct 2.9 20:22:16 75° NW 20:22:16 75° NW 20:26:01 10° NNW visible
05 Oct 2.8 20:16:21 72° N 20:16:21 72° N 20:20:00 10° N visible
06 Oct 2.9 20:10:27 62° NNE 20:10:27 62° NNE 20:13:58 10° N visible
07 Oct 3.1 20:04:32 51° NE 20:04:32 51° NE 20:07:53 10° N visible
08 Oct 3.3 19:58:36 43° NE 19:58:36 43° NE 20:01:48 10° N visible
09 Oct 3.6 19:52:41 36° NE 19:52:41 36° NE 19:55:40 10° N visible
